COSMOS 2251 DEB, 35884

Orbit data source: Space-Track

COSMOS 2251 DEB, 35884 is space debris in LEO originally from a launch on Wed, 16 Jun 1993 UTC launched from the Plesetsk Missile And Space Complex (PKMTR). The debris from Iridium 33, an American commercial communications satellite, has been tracked extensively since its accidental collision with the defunct Russian satellite Cosmos 2251 in 2009. This event, occurring at high speed in low Earth orbit (LEO), generated thousands of pieces of space debris, significantly increasing the risk of further collisions. The Iridium 33 debris cloud has impacted space traffic management and orbital debris mitigation strategies, making it a subject of ongoing study in space situational awareness.

Loading next visibility...
Identifier
35884, 1993-036ATX
Orbit
LEO
Country
Flag of CISCIS
Related business
Manufacturer
Unknown
Mission
Spacecraft
Bus & Motor
Unknown
Mass
Unknown
Launch date (UTC)
1993-06-16 (33 years ago)
Launch vehicle
Unknown
Launch site
Plesetsk Missile And Space Complex (PKMTR)
Object type
Payload
Rocket body
Debris
Shape & HBR
Unknown shape, 0.1 m
Radar Cross Section
Small (<0.1 m²)

Expand to show TLE details & history
Last TLE update: 1 day ago

TLE from 1 day ago
0 COSMOS 2251 DEB
1 35884U 93036ATX 26264.17834214  .00001732  00000-0  67114-3 0  9994
2 35884  73.9891 183.7445 0112183 264.4586  94.3758 14.27370839263854
Epoch: 2026-09-21T04:16Z
TLE epoch observation values (Epoch: 2026-09-21T04:16:48.760Z)
Latitude
-0.00011°
Longitude
119.4794°
Altitude
810.173 km
Speed
7.445 km/s
True Right ascension
12h 14m 58s
True Declination
0° 00' 00"
Sunlit
Object was in daylight at epoch
Visualization orbit readout
Latitude
Unknown
Longitude
Unknown
Altitude
Unknown
Speed
Unknown
Apparent Right ascension
Unknown
Apparent Declination
Unknown
Sunlit
N/A
Visualization observer readout
Local Sidereal Time
02:37:16
Azimuth
Unknown
Elevation
Unknown
Doppler factor
Unknown
Orbital elements
Apogee altitude
878.676 km
Perigee altitude
717.664 km
Semi-major axis
7,176.307 km
Eccentricity
0.01122
Inclination
73.9891°
RAAN
183.7445°
Arg. of periapsis
264.4586°
True anomaly
95.6561°
Mean anomaly
94.3758°
Eccentric anomaly
95.0161°
Mean motion
3.57019 °/min
Orbital period
100.83 mins
BSTAR
0.00067114

Documentation

Showing up to 5 results
|